K2MST Weather Reports


time (UTC)temp
F
wind
direction
speed
knots
gust
knots
rain 1hr
in
rain 24hr
in
rain mn
in
humidity
%
barometer
mb
20260504003017 57 248 3.5 8.7 0.00 0.00 0.00 43 1007.6
20260504002017 56 225 1.7 4.3 0.00 0.00 0.00 44 1007.4
20260504001037 56 225 0.9 3.5 0.00 0.00 0.00 45 1007.2
20260504000017 56 203 3.5 5.2 0.00 0.00 0.00 45 1007.3
20260503235017 56 225 3.5 8.7 0.00 0.00 0.00 45 1007.2
20260503234017 56 315 3.5 9.6 0.00 0.00 0.00 46 1007.6
20260503233017 56 293 8.7 14.8 0.00 0.00 0.00 44 1007.8
20260503232017 56 270 7.0 16.5 0.00 0.00 0.00 44 1008.0
20260503231017 57 293 6.1 10.4 0.00 0.00 0.00 40 1007.9
20260503230019 57 293 6.1 13.0 0.00 0.00 0.00 41 1007.8
20260503225059 58 293 3.5 7.8 0.00 0.00 0.00 39 1007.7
20260503224039 57 270 2.6 5.2 0.00 0.00 0.00 41 1007.5
20260503223020 58 248 2.6 6.1 0.00 0.00 0.00 39 1007.5
20260503222019 58 270 2.6 5.2 0.00 0.00 0.00 40 1007.4
20260503221019 58 248 4.3 8.7 0.00 0.00 0.00 38 1007.5
20260503220019 57 315 2.6 7.8 0.00 0.00 0.00 39 1007.7
20260503215039 57 248 3.5 7.8 0.00 0.00 0.00 39 1007.8
20260503214019 57 270 3.5 7.8 0.00 0.00 0.00 39 1007.7
20260503213018 57 270 5.2 8.7 0.00 0.00 0.00 40 1007.8
20260503212018 57 270 5.2 9.6 0.00 0.00 0.00 39 1007.7
20260503211018 57 293 4.3 10.4 0.00 0.00 0.00 41 1007.7
20260503210018 57 248 3.5 7.8 0.00 0.00 0.00 41 1007.8
20260503205018 56 293 4.3 7.8 0.00 0.00 0.00 41 1007.9
20260503204018 56 293 5.2 9.6 0.00 0.00 0.00 42 1007.9
20260503203018 56 293 7.0 12.2 0.00 0.00 0.00 41 1008.0
20260503202038 57 293 6.1 13.9 0.00 0.00 0.00 40 1008.2
20260503201018 56 270 6.1 12.2 0.00 0.00 0.00 41 1008.4
20260503200018 56 270 6.1 12.2 0.00 0.00 0.00 41 1008.4
20260503195038 56 315 6.1 11.3 0.00 0.00 0.00 41 1008.4
20260503194018 56 248 7.0 13.0 0.00 0.00 0.00 41 1008.5
20260503193018 55 293 6.1 11.3 0.00 0.00 0.00 39 1008.5
20260503192038 56 293 5.2 10.4 0.00 0.00 0.00 39 1008.6
20260503191018 56 293 5.2 12.2 0.00 0.00 0.00 38 1008.8
20260503190018 56 248 6.1 12.2 0.00 0.00 0.00 37 1008.9
20260503185018 56 293 7.0 13.0 0.00 0.00 0.00 35 1008.9
20260503184018 56 293 5.2 11.3 0.00 0.00 0.00 36 1008.9
20260503183018 57 270 6.1 13.0 0.00 0.00 0.00 34 1009.1
20260503182018 56 270 5.2 11.3 0.00 0.00 0.00 35 1009.2
20260503181019 55 293 4.3 8.7 0.00 0.00 0.00 36 1009.4
20260503180018 56 338 4.3 10.4 0.00 0.00 0.00 34 1009.5
20260503175018 55 248 7.0 11.3 0.00 0.00 0.00 34 1009.7
20260503174018 55 225 7.0 12.2 0.00 0.00 0.00 33 1009.9
20260503173038 54 293 2.6 5.2 0.00 0.00 0.00 34 1009.7
20260503172038 54 338 3.5 8.7 0.00 0.00 0.00 33 1009.9
20260503171017 54 315 3.5 8.7 0.00 0.00 0.00 32 1010.0
20260503131039 45 293 3.5 8.7 0.00 0.00 0.00 61 1012.1
20260503081019 42 315 1.7 5.2 0.00 0.00 0.00 71 1011.4
20260503072017 42 248 2.6 5.2 0.00 0.00 0.00 71 1011.4
20260503071038 42 248 2.6 5.2 0.00 0.00 0.00 71 1011.3
20260503055017 39 0.0 1.7 0.00 0.00 0.00 78 1011.5
20260503054017 39 0.0 0.9 0.00 0.00 0.00 78 1011.6
20260503053017 39 0.0 0.0 0.00 0.00 0.00 79 1011.6
20260503052037 39 158 0.9 1.7 0.00 0.00 0.00 79 1011.7
20260503051017 39 158 0.9 1.7 0.00 0.00 0.00 79 1011.8
20260503050057 39 158 0.9 2.6 0.00 0.00 0.00 79 1011.9
20260503045057 39 180 0.9 2.6 0.00 0.00 0.00 79 1012.0
20260503044037 38 158 0.9 2.6 0.00 0.00 0.00 78 1012.1
20260503043017 38 158 0.9 1.7 0.00 0.00 0.00 78 1012.2
20260503042017 38 158 0.9 3.5 0.00 0.00 0.00 78 1012.3
20260503041017 38 180 0.9 1.7 0.00 0.00 0.00 79 1012.3
20260503040019 38 158 1.7 3.5 0.00 0.01 0.01 79 1012.3
20260503035017 38 180 1.7 3.5 0.00 0.01 0.01 78 1012.3
20260503034017 37 180 1.7 2.6 0.00 0.01 0.01 78 1012.4
20260503033018 38 0.0 1.7 0.00 0.01 0.01 77 1012.3
20260503032017 38 0.0 0.0 0.00 0.01 0.01 77 1012.3
20260503031017 38 0.0 0.9 0.00 0.02 0.01 77 1012.3
20260503030017 37 0.0 0.0 0.00 0.02 0.01 77 1012.5
20260503025016 38 0.0 0.0 0.00 0.03 0.01 76 1012.5
20260503024019 38 0.0 0.0 0.00 0.04 0.01 76 1012.5
20260503023019 38 0.0 0.0 0.00 0.04 0.01 74 1012.5
20260503022019 39 0.0 0.0 0.00 0.05 0.01 73 1012.6
20260503021018 39 225 0.9 1.7 0.00 0.05 0.01 72 1012.6
20260503020018 41 0.0 1.7 0.00 0.06 0.01 70 1012.7
20260503015019 42 315 1.7 3.5 0.00 0.07 0.01 70 1012.6
20260503014018 42 315 1.7 3.5 0.00 0.07 0.01 69 1012.7
20260503013019 42 293 2.6 6.1 0.00 0.07 0.01 69 1012.7
20260503012018 42 315 2.6 4.3 0.00 0.08 0.01 68 1012.7
20260503011019 42 293 1.7 2.6 0.00 0.08 0.01 67 1012.7
20260503010017 43 315 2.6 4.3 0.00 0.08 0.01 66 1012.6
20260503005017 43 293 1.7 2.6 0.00 0.09 0.01 66 1012.4
20260503004037 43 248 0.9 2.6 0.00 0.09 0.01 64 1012.3